When you browse on this site, cookies collect data to enhance your experience and personalize the content and advertising you see.
Visit our Privacy Policy to learn more. By continuing to use the site, you agree to this use of cookies and data.
  • In Hungary
  • List of Countries
  • For 7 days
  • Water Temperature
  • Weather Map
  • News
  • Weather Widgets
  • user-avatar
    Login

    Hourly Weather Khmaryne

    Today, 4 April, Saturday

    Time Temperature Precipitation Wind Pressure Humidity
    00:00 +5°C° 0 mm 3 mps 752 mmHg 51%
    01:00 +5°C° 0 mm 3 mps 752 mmHg 51%
    02:00 +4°C° 0 mm 3 mps 753 mmHg 52%
    03:00 +4°C° 0 mm 3 mps 753 mmHg 54%
    04:00 +3°C° 0 mm 3 mps 753 mmHg 57%
    05:00 +3°C° 0 mm 3 mps 753 mmHg 60%
    06:00 +4°C° 0 mm 3 mps 754 mmHg 59%
    07:00 +5°C° 0 mm 3 mps 754 mmHg 59%
    08:00 +8°C° 0 mm 3 mps 755 mmHg 58%
    09:00 +9°C° 0 mm 3 mps 755 mmHg 54%
    10:00 +11°C° 0 mm 3 mps 755 mmHg 51%
    11:00 +13°C° 0 mm 4 mps 755 mmHg 47%
    12:00 +13°C° 0 mm 4 mps 756 mmHg 45%
    13:00 +13°C° 0 mm 4 mps 756 mmHg 42%
    14:00 +13°C° 0 mm 5 mps 756 mmHg 39%
    15:00 +13°C° 0 mm 5 mps 756 mmHg 38%
    16:00 +12°C° 0 mm 4 mps 756 mmHg 37%
    17:00 +12°C° 0 mm 4 mps 756 mmHg 37%
    18:00 +10°C° 0 mm 4 mps 757 mmHg 39%
    19:00 +9°C° 0 mm 3 mps 758 mmHg 42%
    20:00 +8°C° 0 mm 3 mps 758 mmHg 45%
    21:00 +7°C° 0 mm 3 mps 759 mmHg 46%
    22:00 +5°C° 0 mm 3 mps 759 mmHg 47%
    23:00 +5°C° 0 mm 3 mps 760 mmHg 48%

    Tomorrow, 5 April, Sunday

    Time Temperature Precipitation Wind Pressure Humidity
    00:00 +4°C° 0 mm 3 mps 760 mmHg 50%
    01:00 +4°C° 0 mm 3 mps 760 mmHg 52%
    02:00 +3°C° 0 mm 3 mps 761 mmHg 54%
    03:00 +3°C° 0 mm 3 mps 761 mmHg 56%
    04:00 +2°C° 0 mm 3 mps 761 mmHg 57%
    05:00 +2°C° 0 mm 3 mps 762 mmHg 59%
    06:00 +3°C° 0 mm 4 mps 762 mmHg 55%
    07:00 +5°C° 0 mm 4 mps 762 mmHg 51%
    08:00 +6°C° 0 mm 5 mps 763 mmHg 48%
    09:00 +7°C° 0 mm 5 mps 763 mmHg 44%
    10:00 +8°C° 0 mm 5 mps 763 mmHg 40%
    11:00 +9°C° 0 mm 6 mps 763 mmHg 36%
    12:00 +9°C° 0 mm 6 mps 763 mmHg 35%
    13:00 +10°C° 0 mm 6 mps 763 mmHg 33%
    14:00 +10°C° 0 mm 6 mps 763 mmHg 31%
    15:00 +10°C° 0 mm 6 mps 763 mmHg 33%
    16:00 +9°C° 0 mm 6 mps 763 mmHg 34%
    17:00 +9°C° 0 mm 6 mps 763 mmHg 36%
    18:00 +7°C° 0 mm 6 mps 764 mmHg 40%
    19:00 +6°C° 0 mm 5 mps 764 mmHg 44%
    20:00 +5°C° 0 mm 4 mps 765 mmHg 48%
    21:00 +4°C° 0 mm 4 mps 765 mmHg 49%
    22:00 +4°C° 0 mm 3 mps 766 mmHg 50%
    23:00 +3°C° 0 mm 3 mps 766 mmHg 51%

    Day after tomorrow, 6 April, Monday

    Time Temperature Precipitation Wind Pressure Humidity
    00:00 +2°C° 0 mm 3 mps 767 mmHg 52%
    01:00 +2°C° 0 mm 3 mps 767 mmHg 54%
    02:00 +2°C° 0 mm 2 mps 767 mmHg 55%
    03:00 +2°C° 0 mm 2 mps 767 mmHg 56%
    04:00 +2°C° 0 mm 2 mps 767 mmHg 56%
    05:00 +2°C° 0 mm 2 mps 768 mmHg 56%
    06:00 +3°C° 0 mm 2 mps 768 mmHg 53%
    07:00 +5°C° 0 mm 2 mps 768 mmHg 49%
    08:00 +6°C° 0 mm 2 mps 769 mmHg 45%
    09:00 +8°C° 0 mm 3 mps 768 mmHg 42%
    10:00 +9°C° 0 mm 3 mps 768 mmHg 38%
    11:00 +10°C° 0 mm 4 mps 768 mmHg 34%
    12:00 +11°C° 0 mm 4 mps 768 mmHg 33%
    13:00 +12°C° 0 mm 4 mps 768 mmHg 32%
    14:00 +13°C° 0 mm 4 mps 768 mmHg 32%
    15:00 +12°C° 0 mm 4 mps 768 mmHg 33%
    16:00 +12°C° 0 mm 4 mps 767 mmHg 35%
    17:00 +12°C° 0 mm 4 mps 767 mmHg 36%
    18:00 +11°C° 0 mm 3 mps 767 mmHg 41%
    19:00 +9°C° 0 mm 2 mps 767 mmHg 46%
    20:00 +8°C° 0 mm 2 mps 767 mmHg 50%
    21:00 +7°C° 0 mm 2 mps 768 mmHg 52%
    22:00 +7°C° 0 mm 2 mps 768 mmHg 54%
    23:00 +7°C° 0 mm 1 mps 768 mmHg 56%

    7 April, Tuesday

    Time Temperature Precipitation Wind Pressure Humidity
    00:00 +7°C° 0 mm 1 mps 768 mmHg 58%
    01:00 +7°C° 0 mm 1 mps 768 mmHg 60%
    02:00 +6°C° 0 mm 1 mps 767 mmHg 62%
    03:00 +6°C° 0 mm 1 mps 768 mmHg 64%
    04:00 +6°C° 0 mm 1 mps 768 mmHg 65%
    05:00 +5°C° 0 mm 1 mps 768 mmHg 67%
    06:00 +6°C° 0 mm 2 mps 768 mmHg 63%
    07:00 +7°C° 0 mm 2 mps 768 mmHg 59%
    08:00 +9°C° 0 mm 2 mps 768 mmHg 54%
    09:00 +10°C° 0 mm 2 mps 768 mmHg 51%
    10:00 +11°C° 0 mm 3 mps 767 mmHg 48%
    11:00 +13°C° 0 mm 3 mps 767 mmHg 44%
    12:00 +13°C° 0 mm 3 mps 767 mmHg 43%
    13:00 +13°C° 0 mm 3 mps 767 mmHg 42%
    14:00 +14°C° 0 mm 3 mps 766 mmHg 41%
    15:00 +14°C° 0 mm 3 mps 766 mmHg 42%
    16:00 +13°C° 0 mm 3 mps 765 mmHg 43%
    17:00 +13°C° 0 mm 3 mps 765 mmHg 44%
    18:00 +13°C° 0 mm 2 mps 765 mmHg 48%
    19:00 +12°C° 0 mm 2 mps 765 mmHg 52%
    20:00 +11°C° 0 mm 1 mps 765 mmHg 56%
    21:00 +10°C° 0 mm 1 mps 765 mmHg 58%
    22:00 +10°C° 0 mm 1 mps 765 mmHg 60%
    23:00 +9°C° 0 mm 1 mps 765 mmHg 62%

    8 April, Wednesday

    Time Temperature Precipitation Wind Pressure Humidity
    00:00 +9°C° 0 mm 1 mps 764 mmHg 63%
    01:00 +8°C° 0 mm 1 mps 764 mmHg 64%
    02:00 +8°C° 0 mm 1 mps 764 mmHg 65%
    03:00 +8°C° 0 mm 1 mps 764 mmHg 66%
    04:00 +7°C° 0 mm 1 mps 763 mmHg 68%
    05:00 +6°C° 0 mm 2 mps 763 mmHg 69%
    06:00 +8°C° 0 mm 2 mps 763 mmHg 63%
    07:00 +9°C° 0 mm 2 mps 763 mmHg 58%
    08:00 +11°C° 0 mm 3 mps 762 mmHg 52%
    09:00 +12°C° 0 mm 3 mps 762 mmHg 46%
    10:00 +14°C° 0 mm 4 mps 762 mmHg 39%
    11:00 +15°C° 0 mm 4 mps 761 mmHg 33%
    12:00 +17°C° 0 mm 4 mps 761 mmHg 31%
    13:00 +17°C° 0 mm 5 mps 760 mmHg 30%
    14:00 +17°C° 0 mm 5 mps 759 mmHg 28%
    15:00 +17°C° 0 mm 5 mps 759 mmHg 31%
    16:00 +17°C° 0 mm 5 mps 758 mmHg 34%
    17:00 +17°C° 0 mm 4 mps 758 mmHg 36%
    18:00 +15°C° 0 mm 4 mps 758 mmHg 42%
    19:00 +14°C° 0 mm 3 mps 758 mmHg 48%
    20:00 +12°C° 0 mm 3 mps 758 mmHg 55%
    21:00 +12°C° 0 mm 3 mps 758 mmHg 60%
    22:00 +11°C° 0 mm 4 mps 758 mmHg 65%
    23:00 +11°C° 0 mm 4 mps 758 mmHg 71%

    9 April, Thursday

    Time Temperature Precipitation Wind Pressure Humidity
    00:00 +8°C° 0 mm 4 mps 758 mmHg 72%
    01:00 +7°C° 0 mm 4 mps 758 mmHg 74%
    02:00 +7°C° 0 mm 3 mps 758 mmHg 76%
    03:00 +7°C° 0 mm 3 mps 758 mmHg 77%
    04:00 +5°C° 0 mm 3 mps 758 mmHg 78%
    05:00 +5°C° 0 mm 3 mps 758 mmHg 79%
    06:00 +6°C° 0 mm 4 mps 758 mmHg 75%
    07:00 +8°C° 0 mm 4 mps 758 mmHg 70%
    08:00 +10°C° 0 mm 4 mps 758 mmHg 66%
    09:00 +12°C° 0 mm 4 mps 758 mmHg 60%
    10:00 +13°C° 0 mm 4 mps 758 mmHg 53%
    11:00 +15°C° 0 mm 4 mps 758 mmHg 47%
    12:00 +15°C° 0 mm 4 mps 758 mmHg 44%
    13:00 +17°C° 0 mm 4 mps 757 mmHg 40%
    14:00 +18°C° 0 mm 4 mps 757 mmHg 37%
    15:00 +18°C° 0 mm 4 mps 757 mmHg 37%
    16:00 +17°C° 0 mm 4 mps 757 mmHg 38%
    17:00 +17°C° 0 mm 4 mps 756 mmHg 38%
    18:00 +16°C° 0 mm 3 mps 756 mmHg 43%
    19:00 +13°C° 0 mm 3 mps 756 mmHg 47%
    20:00 +13°C° 0 mm 2 mps 756 mmHg 52%
    21:00 +11°C° 0 mm 3 mps 756 mmHg 54%
    22:00 +11°C° 0 mm 3 mps 756 mmHg 57%
    23:00 +10°C° 0 mm 3 mps 756 mmHg 59%
    Show more